Regional Weather Roundup
Issued by NWS Cleveland, OH

Home | Current Version | Previous Version | Graphics & Text | Print | Product List | Glossary On
Versions: 1 2 3 4 5 6 7 8 9 10 11 12 13 14 15 16 17 18 19 20 21 22 23 24 25 26 27 28 29 30 31 32 33 34 35 36 37 38 39 40 41 42 43 44 45 46 47 48 49 50
388
ASUS41 KCLE 082312
RWRCLE
OHIO REGIONAL WEATHER ROUNDUP
NATIONAL WEATHER SERVICE WILMINGTON, OH
600 PM EST MON FEB 08 2016

NOTE: "FAIR" INDICATES FEW OR NO CLOUDS BELOW 12,000 FEET WITH NO
SIGNIFICANT WEATHER AND/OR OBSTRUCTIONS TO VISIBILITY.

OHZ001>008-015>018-024>027-034-035-043-044-090000-
   NORTHWEST OHIO

CITY           SKY/WX    TMP DP  RH WIND       PRES   REMARKS
DEFIANCE       CLOUDY    38  26  62 W7        29.63R
FINDLAY        CLOUDY    38  28  67 NW10      29.60S
TOLEDO EXPRESS CLOUDY    37  27  67 W14       29.61R
TOLEDO EXEC    CLOUDY    37  30  75 W15       29.61R
LIMA           CLOUDY    36  28  73 NW13      29.61R
$$

OHZ009>014-019>023-028>033-038-089-090000-
   NORTHEAST OHIO

CITY           SKY/WX    TMP DP  RH WIND       PRES   REMARKS
CLE-HOPKINS    LGT SNOW  33  31  92 W3        29.61S FOG
CLE-LAKEFRONT  LGT SNOW  33  32  96 SW10      29.59S VSB 1   WCI  25
CUY CO. ARPT   LGT SNOW  34  32  93 W9        29.59R FOG     WCI  26
LORAIN-ELYRIA  CLOUDY    34  31  88 CALM      29.59S
ASHTABULA      CLOUDY    35  32  88 SW8       29.56S WCI  29
AKRON-CANTON   MOCLDY    33  30  88 NW6       29.58R WCI  28
WOOSTER        FAIR      31  30  96 SW5       29.59R WCI  26
MANSFIELD      MOCLDY    33  33 100 SW6       29.58R WCI  28
YOUNGSTOWN     LGT SNOW  34  32  92 SW9       29.56S WCI  27
$$

OHZ042-051>053-060>062-070>072-077>081-090000-
  SOUTHWEST OHIO

CITY           SKY/WX    TMP DP  RH WIND       PRES   REMARKS
CINC-COVINGTON LGT SNOW  33  31  92 W9        29.66S VSB 3/4 WCI  25
CINC-LUNKEN    CLOUDY    35  31  85 SW12      29.69R WCI  27
HAMILTON       CLOUDY    36  32  85 SW9       29.67R
DAYTON         CLOUDY    35  30  82 NW12      29.63R WCI  27
WRIGHT-PAT AFB LGT RAIN  34  33  97 NW3       29.63R
DAYTON GENERAL LGT RAIN  36  31  82 SW6       29.63R
WILMINGTON     LGT SNOW  32  32 100 W6        29.63S FOG     WCI  26
$$

OHZ036-037-039>041-045>050-054>059-063>069-073>076-082>088-090000-
  CENTRAL AND SOUTHEAST OHIO

CITY           SKY/WX    TMP DP  RH WIND       PRES   REMARKS
COLUMBUS       MOCLDY    35  35 100 CALM      29.61S
OSU AIRPORT    CLOUDY    37  31  78 NW8       29.61R
BOLTON FIELD   MOCLDY    36  30  80 CALM      29.62S
RICKENBACK AFB CLOUDY    34  33  94 SW6       29.62S WCI  29
NEWARK         CLOUDY    34  31  88 CALM      29.61S FOG
MARION         LGT SNOW  34  30  85 W6        29.62R FOG     WCI  29
LANCASTER      MOCLDY    36  32  85 CALM      29.63S
ZANESVILLE     CLOUDY    36  32  85 SW6       29.62R
NEW PHILLY     MOCLDY    34  31  88 CALM      29.61R
$$




USA.gov is the U.S. government's official web portal to all federal, state and local government web resources and services.